Find OneWeb SL0596

NORAD ID: 54662 Int'l Des: 2022-166 Owner: ONEWEBN Country: UK Constellation: oneweb operational
又名: ONEWEB-0596 spacetrack, celestrak
LEOCIRCULARPOLARONEWEB_TYPE

当前视图

正在加载3D地球...

About OneWeb SL0596

OneWeb SL0596 (NORAD 54662) is a oneweb constellation satellite launched Dec 8, 2022 by ONEWEBN of UK. It operates in LEO, CIRCULAR, POLAR, ONEWEB_TYPE orbit with a mass of 148.00 kg.

即将过境

Passes for default location (London). Set your location on the main map for personalized predictions.

高度历史

Loading altitude history...

两行轨道根数

1 54662U 22166W 26264.13780746 .00000128 00000-0 27824-3 0 9993
2 54662 87.9282 224.8856 0002048 79.6758 280.4607 13.21824097184212
Epoch: Sep 21, 2026 • Age: 11 hours

当前状态

高度 1188.0 km
远地点 / 近地点 N/A
速度 7.27 km/s
星下点 67.70°N, 11.11°E
发射日期 Dec 8, 2022
运行时间 3.7 years
类型 internet

技术详情

分类 Payload
质量 148.00 kg
干质量 140.00 kg
长度 1.30 m
直径 1.00 m
跨度 5.00 m
形状 ? Trapezoid+2 pan
制造商 ONEWUS
平台类型 ARROW
阶段状态 In Orbit
所有者/国家 ONEWEBN/UK

Most Searched